If you wish to contribute or participate in the discussions about articles you are invited to join SKYbrary as a registered user

 Actions

Abel Santa Maria Airport

From SKYbrary Wiki

MUSC
Airport
ICAO: MUSC – IATA: SNU
Summary
Name Abel Santa Maria Airport
Region South America and Caribbean
Territory Cuba CU.gif
Location Santa Clara, Villa Clara
Serving Santa Clara
Elevation 103.022 m338 ft103.022 m
Coordinates 22° 29' 26.3163", -79° 56' 40.0145"
Runways
Designator Length Width Surface ROPS
8/26 3017 m9,898.294 ft 45 m147.638 ft ASP yes/yes


METAR
Observation MUSC 202351Z 26003KT 9000 BKN020 25/23 Q1015
Station SANTA CLARA
Date/Time 20 June 2018 23:51:00
Wind direction 260°
Wind speed 03 kts
Lowest cloud amount broken clouds
Temperature 25°C
Dew point 23°C
Humidity 88%
QNH 1015 hPa
Weather condition n/a

BS
Tag(s) Bird Strike
WX
Tag(s) Cumulonimbus
Tropical Revolving Storm

International airport serving Santa Clara, Cuba.

Climatology

Tropical Savanna climate (Köppen climate classification Aw)

Maps

Terrain

Loading map...

Airport Layout

Loading map...


Accidents & Serious Incidents at or in vicinity of MUSC

None on SKYbrary